Weather History for Tillamook, OR

Change the Weather History Date:

Friday, November 23, 2012

  Actual Average (KMMV) Record (KMMV)
Temperature  
Mean Temperature 50 °F 44 °F  
Max Temperature 57 °F 50 °F 80 °F (1923)
Min Temperature 42 °F 37 °F 18 °F (1985)
Degree Days  
Heating Degree Days 16 21  
Month to date heating degree days 442  
Since 1 July heating degree days 1065  
Cooling Degree Days 0 0  
Month to date cooling degree days 0  
Year to date cooling degree days 215  
Moisture  
Dew Point 50 °F    
Average Humidity 92    
Maximum Humidity 100    
Minimum Humidity 82    
Precipitation  
Precipitation 1.74 in 0.25 in 2.44 in (1942)
Month to date precipitation 4.86  
Year to date precipitation 31.72  
Sea Level Pressure  
Sea Level Pressure 30.15 in    
Wind  
Wind Speed 5 mph (South)    
Max Wind Speed 18 mph    
Max Gust Speed 30 mph    
Visibility 8 miles    
Events Rain    
T = Trace of Precipitation, MM = Missing Value Source: NWS Daily Summary

Daily Weather History Graph

Daily Weather History Graph

Search for Another Location

Airport:

Trip Planner

Search our weather history database for the weather conditions in past years. The results will help you decide how hot, cold, wet, or windy it might be!

Date:

Astronomy

Nov. 23, 2012 Rise Set
Actual Time 8:25 AM MST 5:37 PM MST
Civil Twilight 7:52 AM MST 6:10 PM MST
Nautical Twilight 7:16 AM MST 6:47 PM MST
Astronomical Twilight 6:40 AM MST 7:22 PM MST
Moon 3:05 PM MST (11/23) 3:38 AM MST (11/23)
Length of Visible Light 10h 17m
Length of Day
9h 12m
Waxing Gibbous, 80% of the Moon is Illuminated
Nov 23
Waxing Gibbous
Nov 28
Full
Dec 6
Last Quarter
Dec 13
New
Dec 19
First Quarter

Hourly Weather History & Observations

Time (MST) Temp. Windchill Dew Point Humidity Pressure Visibility Wind Dir Wind Speed Gust Speed Precip Events Conditions
12:35 AM 42.8 °F - 41.0 °F 93% 30.24 in 10.0 mi Calm Calm - N/A   Mostly Cloudy
12:55 AM 42.8 °F - 41.0 °F 93% 30.24 in 10.0 mi Calm Calm - N/A   Overcast
1:15 AM 42.8 °F 40.1 °F 41.0 °F 93% 30.24 in 10.0 mi SE 4.6 mph - N/A   Scattered Clouds
1:35 AM 42.8 °F - 41.0 °F 93% 30.22 in 10.0 mi Calm Calm - N/A   Clear
1:55 AM 42.8 °F 40.1 °F 41.0 °F 93% 30.21 in 10.0 mi SE 4.6 mph - N/A   Scattered Clouds
2:15 AM 44.6 °F - 41.0 °F 87% 30.22 in 10.0 mi Calm Calm - N/A   Mostly Cloudy
2:35 AM 44.6 °F - 41.0 °F 87% 30.21 in 10.0 mi Calm Calm - N/A   Overcast
2:55 AM 44.6 °F - 41.0 °F 87% 30.20 in 10.0 mi Calm Calm - N/A   Overcast
3:15 AM 44.6 °F 43.1 °F 42.8 °F 93% 30.21 in 10.0 mi SE 3.5 mph - N/A   Overcast
3:35 AM 46.4 °F 44.3 °F 42.8 °F 87% 30.20 in 10.0 mi SSE 4.6 mph - N/A   Overcast
3:55 AM 46.4 °F 41.9 °F 42.8 °F 87% 30.20 in 10.0 mi South 9.2 mph - N/A   Overcast
4:15 AM 48.2 °F - 42.8 °F 82% 30.19 in 10.0 mi South 8.1 mph - N/A   Overcast
4:35 AM 48.2 °F - 44.6 °F 87% 30.19 in 10.0 mi Calm Calm - N/A   Overcast
5:15 AM 48.2 °F - 44.6 °F 87% 30.19 in 10.0 mi Calm Calm - N/A   Overcast
5:35 AM 48.2 °F - 44.6 °F 87% 30.19 in 10.0 mi Calm Calm - N/A   Overcast
5:55 AM 48.2 °F - 44.6 °F 87% 30.19 in 7.0 mi NNE 4.6 mph - N/A   Light Drizzle
6:15 AM 48.2 °F - 44.6 °F 87% 30.19 in 10.0 mi Calm Calm - N/A   Overcast
6:35 AM 48.2 °F - 44.6 °F 87% 30.19 in 10.0 mi North 3.5 mph - N/A Rain Light Rain
6:55 AM 48.2 °F - 44.6 °F 87% 30.17 in 10.0 mi Calm Calm - N/A Rain Light Rain
7:15 AM 48.2 °F - 46.4 °F 93% 30.18 in 10.0 mi NNW 3.5 mph - 0.01 in   Drizzle
7:35 AM 48.2 °F - 46.4 °F 93% 30.18 in 10.0 mi Calm Calm - 0.01 in   Drizzle
7:55 AM 48.2 °F - 46.4 °F 93% 30.16 in 10.0 mi Calm Calm - 0.01 in Rain Rain
8:15 AM 50.0 °F - 48.2 °F 94% 30.17 in 10.0 mi WSW 3.5 mph - 0.02 in Rain Light Rain
8:35 AM 50.0 °F - 48.2 °F 94% 30.17 in 10.0 mi NNE 4.6 mph - 0.02 in Rain Light Rain
8:55 AM 50.0 °F - 48.2 °F 94% 30.18 in 10.0 mi Calm Calm - 0.03 in   Drizzle
9:15 AM 50.0 °F - 48.2 °F 94% 30.18 in 7.0 mi Calm Calm - N/A Rain Light Rain
9:35 AM 50.0 °F - 48.2 °F 94% 30.18 in 5.0 mi NE 6.9 mph - 0.02 in Rain Light Rain
9:55 AM 50.0 °F - 50.0 °F 100% 30.17 in 7.0 mi NE 4.6 mph - 0.04 in Rain Light Rain
10:15 AM 51.8 °F - 50.0 °F 94% 30.18 in 4.0 mi NNE 4.6 mph - 0.03 in Rain Rain
10:35 AM 50.0 °F - 50.0 °F 100% 30.17 in 3.0 mi NE 6.9 mph - 0.07 in Rain Rain
10:55 AM 51.8 °F - 51.8 °F 100% 30.17 in 4.0 mi East 6.9 mph - 0.11 in Rain Rain
11:15 AM 53.6 °F - 53.6 °F 100% 30.17 in 5.0 mi Calm Calm - 0.04 in Rain Light Rain
11:35 AM 53.6 °F - 53.6 °F 100% 30.17 in 7.0 mi SE 4.6 mph - 0.08 in Rain Rain
11:55 AM 55.4 °F - 53.6 °F 94% 30.18 in 7.0 mi South 10.4 mph - 0.12 in Rain Rain
12:15 PM 55.4 °F - 53.6 °F 94% 30.16 in 5.0 mi ESE 6.9 mph - 0.07 in Rain Rain
12:35 PM 55.4 °F - 53.6 °F 94% 30.15 in 10.0 mi SSE 3.5 mph - 0.08 in Rain Light Rain
12:55 PM 55.4 °F - 51.8 °F 88% 30.14 in 10.0 mi South 11.5 mph 16.1 mph 0.09 in Rain Light Rain
1:15 PM 55.4 °F - 51.8 °F 88% 30.14 in 10.0 mi South 15.0 mph 18.4 mph 0.02 in Rain Rain
1:35 PM 55.4 °F - 51.8 °F 88% 30.13 in 5.0 mi South 16.1 mph 25.3 mph 0.06 in Rain Rain
1:55 PM 55.4 °F - 53.6 °F 94% 30.12 in 2.5 mi SSE 18.4 mph 29.9 mph 0.16 in Rain Heavy Rain
2:15 PM 55.4 °F - 53.6 °F 94% 30.11 in 3.0 mi SSE 18.4 mph 25.3 mph 0.07 in Rain Heavy Rain
2:35 PM 55.4 °F - 53.6 °F 94% 30.10 in 4.0 mi SSE 18.4 mph 25.3 mph 0.15 in Rain Rain
2:55 PM 55.4 °F - 53.6 °F 94% 30.09 in 7.0 mi SSE 15.0 mph 24.2 mph 0.19 in Rain Rain
3:15 PM 57.2 °F - 53.6 °F 88% 30.09 in 10.0 mi South 13.8 mph 18.4 mph 0.02 in Rain Light Rain
3:35 PM 57.2 °F - 53.6 °F 88% 30.09 in 10.0 mi SSE 11.5 mph - 0.03 in Rain Light Rain
3:55 PM 57.2 °F - 53.6 °F 88% 30.07 in 4.0 mi South 15.0 mph 19.6 mph 0.08 in Rain Rain
4:15 PM 57.2 °F - 53.6 °F 88% 30.07 in 4.0 mi South 17.3 mph 21.9 mph 0.06 in Rain Rain
4:35 PM 57.2 °F - 53.6 °F 88% 30.08 in 3.0 mi South 11.5 mph - 0.12 in Rain Rain
4:55 PM 57.2 °F - 53.6 °F 88% 30.09 in 4.0 mi South 10.4 mph - 0.21 in Rain Heavy Rain
5:15 PM 57.2 °F - 55.4 °F 94% 30.10 in 2.5 mi South 6.9 mph - 0.14 in Rain Heavy Rain
5:35 PM 57.2 °F - 55.4 °F 94% 30.10 in 5.0 mi South 5.8 mph - 0.23 in Rain Rain
5:55 PM 57.2 °F - 55.4 °F 94% 30.10 in 7.0 mi South 13.8 mph 21.9 mph 0.25 in Rain Light Rain
6:15 PM 57.2 °F - 53.6 °F 88% 30.10 in 4.0 mi South 16.1 mph 26.5 mph 0.02 in Rain Rain
6:35 PM 57.2 °F - 53.6 °F 88% 30.11 in 5.0 mi SSW 9.2 mph 19.6 mph 0.04 in Rain Rain
6:55 PM 57.2 °F - 53.6 °F 88% 30.10 in 5.0 mi SSW 11.5 mph 17.3 mph 0.06 in Rain Rain
7:15 PM 57.2 °F - 53.6 °F 88% 30.11 in 7.0 mi SSW 12.7 mph 20.7 mph 0.02 in Rain Light Rain
7:35 PM 57.2 °F - 53.6 °F 88% 30.11 in 4.0 mi SSW 10.4 mph 18.4 mph 0.03 in Rain Light Rain
7:55 PM 55.4 °F - 53.6 °F 94% 30.11 in 7.0 mi South 10.4 mph - 0.06 in Rain Rain
8:15 PM 55.4 °F - 53.6 °F 94% 30.13 in 10.0 mi SW 5.8 mph - 0.02 in Rain Light Rain
8:35 PM 55.4 °F - 53.6 °F 94% 30.14 in 5.0 mi WSW 6.9 mph - 0.05 in Rain Rain
8:55 PM 55.4 °F - 53.6 °F 94% 30.11 in 7.0 mi South 9.2 mph 17.3 mph 0.06 in Rain Rain
9:15 PM 55.4 °F - 53.6 °F 94% 30.13 in 10.0 mi SW 10.4 mph - 0.01 in Rain Rain
9:35 PM 55.4 °F - 53.6 °F 94% 30.13 in 7.0 mi Calm Calm - 0.10 in Rain Rain
9:55 PM 53.6 °F - 51.8 °F 94% 30.14 in 5.0 mi NNW 6.9 mph - 0.12 in Rain Light Rain
10:15 PM 51.8 °F - 51.8 °F 100% 30.14 in 7.0 mi Calm Calm - 0.03 in Rain Rain
10:35 PM 51.8 °F - 51.8 °F 100% 30.14 in 5.0 mi NW 3.5 mph - 0.08 in Rain Rain
10:55 PM 51.8 °F - 51.8 °F 100% 30.15 in 7.0 mi WNW 6.9 mph - 0.11 in Rain Light Rain
11:15 PM 51.8 °F - 51.8 °F 100% 30.16 in 7.0 mi WNW 4.6 mph - 0.02 in Rain Light Rain
11:35 PM 51.8 °F - 51.8 °F 100% 30.16 in 10.0 mi WNW 4.6 mph - 0.04 in Rain Rain
11:55 PM 51.8 °F - 51.8 °F 100% 30.16 in 10.0 mi Calm Calm - 0.04 in   Drizzle